STARLINK N (59934 NORAD) Tracking and Keplerian Element Data

This shows tracking and keplerian element data for the satellite.

Feedback or suggestion? Click here.




ElementValue
Catalog59934
NameSTARLINK N
Epoch Orbit208
Epoch Day159.91667824
Epoch Year2024
RAAN23.8484
Inclination43.0037
Eccentricity0.0005557
Argument of Perigee271.2101
Mean Anonmoly231.9516
Mean Motion16.03645471
Decay Rate0.00997433
L11 59934U 24106N 24159.91667824 .00997433 51857-3 15203-2 0 9994
L22 59934 43.0037 23.8484 0005557 271.2101 231.9516 16.03645471 2088



Live tracking and technical data element details for STARLINK N (NORAD 59934). STARLINK N can be tracked NOW for your location showing map with azimuth and elevation plus other details from your city location.







IsCatalogInMostPopularTable: catalog: 59934, numindb: 10
Update: records affected: 1



GetName: 59934 STARLINK N

Hit Count: updated at: Wed, 24 Jul 2024 23:31:16 GMT